owner,sensor,date,latitude,longitude,vertical_datum,direction_of_sea_water_velocity,sea_water_speed,upward_sea_water_velocity,qcFlag 
TABS,ioos:station:wmo:42045:1,2005-03-01T00:00:00Z,26.2168,-96.4998,2.0,231.0630728,26.50924367,-99999.0,'11111222,11111222,99999999' 
TABS,ioos:station:wmo:42045:1,2005-03-01T00:30:00Z,26.2168,-96.4998,2.0,242.1589212,23.70372334,-99999.0,'11111222,11111222,99999999' 
TABS,ioos:station:wmo:42045:1,2005-03-01T01:00:00Z,26.2168,-96.4998,2.0,238.7296651,19.57341309,-99999.0,'11111222,11111222,99999999' 
TABS,ioos:station:wmo:42045:1,2005-03-01T01:30:00Z,26.2168,-96.4998,2.0,247.9582174,19.50560945,-99999.0,'11111222,11111222,99999999' 
TABS,ioos:station:wmo:42045:1,2005-03-01T02:00:00Z,26.2168,-96.4998,2.0,252.0717012,18.22491975,-99999.0,'11111222,11111222,99999999' 
TABS,ioos:station:wmo:42045:1,2005-03-01T02:30:00Z,26.2168,-96.4998,2.0,249.6671774,17.09516013,-99999.0,'11111222,11111222,99999999' 
TABS,ioos:station:wmo:42045:1,2005-03-01T03:00:00Z,26.2168,-96.4998,2.0,262.2168919,19.12617578,-99999.0,'11111222,11111222,99999999' 
TABS,ioos:station:wmo:42045:1,2005-03-01T03:30:00Z,26.2168,-96.4998,2.0,265.2387296,17.10902978,-99999.0,'11111222,11111222,99999999' 
TABS,ioos:station:wmo:42045:1,2005-03-01T04:00:00Z,26.2168,-96.4998,2.0,278.3384291,16.75712684,-99999.0,'11111222,11111222,99999999' 
TABS,ioos:station:wmo:42045:1,2005-03-01T04:30:00Z,26.2168,-96.4998,2.0,273.1048216,16.43411695,-99999.0,'11111222,11111222,99999999' 
TABS,ioos:station:wmo:42045:1,2005-03-01T05:00:00Z,26.2168,-96.4998,2.0,285.9405713,15.1110357,-99999.0,'11111222,11111222,99999999' 
TABS,ioos:station:wmo:42045:1,2005-03-01T05:30:00Z,26.2168,-96.4998,2.0,287.990347,13.43692301,-99999.0,'11111222,11111222,99999999' 
TABS,ioos:station:wmo:42045:1,2005-03-01T06:00:00Z,26.2168,-96.4998,2.0,309.6673567,13.23777172,-99999.0,'11111222,11111222,99999999' 
TABS,ioos:station:wmo:42045:1,2005-03-01T06:30:00Z,26.2168,-96.4998,2.0,316.7627026,14.71478168,-99999.0,'11111222,11111222,99999999' 
TABS,ioos:station:wmo:42045:1,2005-03-01T07:00:00Z,26.2168,-96.4998,2.0,312.1858495,12.24064132,-99999.0,'11111222,11111222,99999999' 
TABS,ioos:station:wmo:42045:1,2005-03-01T07:30:00Z,26.2168,-96.4998,2.0,328.6554079,13.14908742,-99999.0,'11111222,11111222,99999999' 
TABS,ioos:station:wmo:42045:1,2005-03-01T08:00:00Z,26.2168,-96.4998,2.0,327.2775337,13.80013406,-99999.0,'11111222,11111222,99999999' 
TABS,ioos:station:wmo:42045:1,2005-03-01T08:30:00Z,26.2168,-96.4998,2.0,333.9542502,15.30427718,-99999.0,'11111222,11111222,99999999' 
TABS,ioos:station:wmo:42045:1,2005-03-01T09:00:00Z,26.2168,-96.4998,2.0,345.6844231,15.4084717,-99999.0,'11111222,11111222,99999999' 
TABS,ioos:station:wmo:42045:1,2005-03-01T09:30:00Z,26.2168,-96.4998,2.0,358.1408778,14.17746451,-99999.0,'11111222,11111222,99999999' 
TABS,ioos:station:wmo:42045:1,2005-03-01T10:00:00Z,26.2168,-96.4998,2.0,1.23778631,17.59410413,-99999.0,'11111222,11111222,99999999' 
TABS,ioos:station:wmo:42045:1,2005-03-01T10:30:00Z,26.2168,-96.4998,2.0,8.905571471,18.60426833,-99999.0,'11111222,11111222,99999999' 
TABS,ioos:station:wmo:42045:1,2005-03-01T11:00:00Z,26.2168,-96.4998,2.0,11.32194465,18.99973158,-99999.0,'11111222,11111222,99999999' 
TABS,ioos:station:wmo:42045:1,2005-03-01T11:30:00Z,26.2168,-96.4998,2.0,20.663613,19.35512852,-99999.0,'11111222,11111222,99999999' 
TABS,ioos:station:wmo:42045:1,2005-03-01T12:00:00Z,26.2168,-96.4998,2.0,23.10340076,20.51534548,-99999.0,'11111222,11111222,99999999' 
TABS,ioos:station:wmo:42045:1,2005-03-01T12:30:00Z,26.2168,-96.4998,2.0,27.65615983,19.26050882,-99999.0,'11111222,11111222,99999999' 
TABS,ioos:station:wmo:42045:1,2005-03-01T13:00:00Z,26.2168,-96.4998,2.0,27.29112889,22.94389897,-99999.0,'11111222,11111222,99999999' 
TABS,ioos:station:wmo:42045:1,2005-03-01T13:30:00Z,26.2168,-96.4998,2.0,30.75314412,20.51479954,-99999.0,'11111222,11111222,99999999' 
TABS,ioos:station:wmo:42045:1,2005-03-01T14:00:00Z,26.2168,-96.4998,2.0,34.58842135,20.34612985,-99999.0,'11111222,11111222,99999999' 
TABS,ioos:station:wmo:42045:1,2005-03-01T14:30:00Z,26.2168,-96.4998,2.0,41.24183604,21.25183521,-99999.0,'11111222,11111222,99999999' 
TABS,ioos:station:wmo:42045:1,2005-03-01T15:00:00Z,26.2168,-96.4998,2.0,46.56780524,20.16008929,-99999.0,'11111222,11111222,99999999' 
TABS,ioos:station:wmo:42045:1,2005-03-01T15:30:00Z,26.2168,-96.4998,2.0,52.50297462,19.54917134,-99999.0,'11111222,11111222,99999999' 
TABS,ioos:station:wmo:42045:1,2005-03-01T16:00:00Z,26.2168,-96.4998,2.0,56.74939914,19.16822892,-99999.0,'11111222,11111222,99999999' 
TABS,ioos:station:wmo:42045:1,2005-03-01T16:30:00Z,26.2168,-96.4998,2.0,49.69520235,20.12816186,-99999.0,'11111222,11111222,99999999' 
TABS,ioos:station:wmo:42045:1,2005-03-01T17:00:00Z,26.2168,-96.4998,2.0,55.07918722,17.818308,-99999.0,'11111222,11111222,99999999' 
TABS,ioos:station:wmo:42045:1,2005-03-01T17:30:00Z,26.2168,-96.4998,2.0,50.99914695,17.04979179,-99999.0,'11111222,11111222,99999999' 
TABS,ioos:station:wmo:42045:1,2005-03-01T18:00:00Z,26.2168,-96.4998,2.0,52.69218889,16.48248161,-99999.0,'11111222,11111222,99999999' 
TABS,ioos:station:wmo:42045:1,2005-03-01T18:30:00Z,26.2168,-96.4998,2.0,52.8848285,15.41214132,-99999.0,'11111222,11111222,99999999' 
TABS,ioos:station:wmo:42045:1,2005-03-01T19:00:00Z,26.2168,-96.4998,2.0,54.01079371,13.27356772,-99999.0,'11111222,11111222,99999999' 
TABS,ioos:station:wmo:42045:1,2005-03-01T19:30:00Z,26.2168,-96.4998,2.0,54.40275965,11.16675423,-99999.0,'11111222,11111222,99999999' 
TABS,ioos:station:wmo:42045:1,2005-03-01T20:00:00Z,26.2168,-96.4998,2.0,42.79001933,12.4684963,-99999.0,'11111222,11111222,99999999' 
TABS,ioos:station:wmo:42045:1,2005-03-01T20:30:00Z,26.2168,-96.4998,2.0,37.03785926,10.92404687,-99999.0,'11111222,11111222,99999999' 
TABS,ioos:station:wmo:42045:1,2005-03-01T21:00:00Z,26.2168,-96.4998,2.0,32.63622247,11.45927136,-99999.0,'11111222,11111222,99999999' 
TABS,ioos:station:wmo:42045:1,2005-03-01T22:00:00Z,26.2168,-96.4998,2.0,31.07179586,10.01725012,-99999.0,'11111222,11111222,99999999' 
TABS,ioos:station:wmo:42045:1,2005-03-01T22:30:00Z,26.2168,-96.4998,2.0,33.30001424,10.1817582,-99999.0,'11111222,11111222,99999999' 
TABS,ioos:station:wmo:42045:1,2005-03-01T23:00:00Z,26.2168,-96.4998,2.0,23.24115652,10.64370236,-99999.0,'11111222,11111222,99999999' 
TABS,ioos:station:wmo:42045:1,2005-03-01T23:30:00Z,26.2168,-96.4998,2.0,20.63619894,9.221680975,-99999.0,'11133222,11111222,99999999' 
TABS,ioos:station:wmo:42045:1,2005-03-02T00:00:00Z,26.2168,-96.4998,2.0,33.31815479,11.10533205,-99999.0,'11111222,11111222,99999999' 
TABS,ioos:station:wmo:42045:1,2005-03-02T00:30:00Z,26.2168,-96.4998,2.0,22.06001391,10.70358818,-99999.0,'11111222,11111222,99999999' 
TABS,ioos:station:wmo:42045:1,2005-03-02T01:00:00Z,26.2168,-96.4998,2.0,20.60284251,7.189840054,-99999.0,'11133222,11111222,99999999' 
TABS,ioos:station:wmo:42045:1,2005-03-02T01:30:00Z,26.2168,-96.4998,2.0,2.38614891,9.368121477,-99999.0,'11133222,11111222,99999999' 
TABS,ioos:station:wmo:42045:1,2005-03-02T02:00:00Z,26.2168,-96.4998,2.0,358.4943017,9.893417003,-99999.0,'11133222,11111222,99999999' 
TABS,ioos:station:wmo:42045:1,2005-03-02T02:30:00Z,26.2168,-96.4998,2.0,358.8172826,10.17216791,-99999.0,'11111222,11111222,99999999' 
TABS,ioos:station:wmo:42045:1,2005-03-02T03:00:00Z,26.2168,-96.4998,2.0,340.4636012,9.868130522,-99999.0,'11133222,11111222,99999999' 
TABS,ioos:station:wmo:42045:1,2005-03-02T03:30:00Z,26.2168,-96.4998,2.0,341.5982712,10.99207897,-99999.0,'11111222,11111222,99999999' 
TABS,ioos:station:wmo:42045:1,2005-03-02T04:00:00Z,26.2168,-96.4998,2.0,344.2073746,11.86799478,-99999.0,'11111222,11111222,99999999' 
TABS,ioos:station:wmo:42045:1,2005-03-02T04:30:00Z,26.2168,-96.4998,2.0,336.2073304,13.0381172,-99999.0,'11111222,11111222,99999999' 
TABS,ioos:station:wmo:42045:1,2005-03-02T05:00:00Z,26.2168,-96.4998,2.0,345.9399429,17.32917194,-99999.0,'11111222,11111222,99999999' 
TABS,ioos:station:wmo:42045:1,2005-03-02T05:30:00Z,26.2168,-96.4998,2.0,337.355071,17.40154016,-99999.0,'11111222,11111222,99999999' 
TABS,ioos:station:wmo:42045:1,2005-03-02T06:30:00Z,26.2168,-96.4998,2.0,341.7496962,21.61744203,-99999.0,'11111222,11111222,99999999' 
TABS,ioos:station:wmo:42045:1,2005-03-02T07:00:00Z,26.2168,-96.4998,2.0,342.624036,20.02379834,-99999.0,'11111222,11111222,99999999' 
TABS,ioos:station:wmo:42045:1,2005-03-02T08:00:00Z,26.2168,-96.4998,2.0,349.744306,24.09498288,-99999.0,'11111222,11111222,99999999' 
TABS,ioos:station:wmo:42045:1,2005-03-02T09:00:00Z,26.2168,-96.4998,2.0,352.7987657,24.17067024,-99999.0,'11111222,11111222,99999999' 
TABS,ioos:station:wmo:42045:1,2005-03-02T10:00:00Z,26.2168,-96.4998,2.0,348.6692383,26.66983502,-99999.0,'11111222,11111222,99999999' 
TABS,ioos:station:wmo:42045:1,2005-03-02T10:30:00Z,26.2168,-96.4998,2.0,354.9878725,26.21023083,-99999.0,'11111222,11111222,99999999' 
TABS,ioos:station:wmo:42045:1,2005-03-02T11:00:00Z,26.2168,-96.4998,2.0,358.8306625,28.41591983,-99999.0,'11111222,11111222,99999999' 
TABS,ioos:station:wmo:42045:1,2005-03-02T11:30:00Z,26.2168,-96.4998,2.0,0.0830375,27.67002891,-99999.0,'11111222,11111222,99999999' 
TABS,ioos:station:wmo:42045:1,2005-03-02T12:00:00Z,26.2168,-96.4998,2.0,2.984051289,24.97385833,-99999.0,'11111222,11111222,99999999' 
TABS,ioos:station:wmo:42045:1,2005-03-02T12:30:00Z,26.2168,-96.4998,2.0,7.50492536,21.89757292,-99999.0,'11111222,11111222,99999999' 
TABS,ioos:station:wmo:42045:1,2005-03-02T13:00:00Z,26.2168,-96.4998,2.0,8.603231317,25.87109004,-99999.0,'11111222,11111222,99999999' 
TABS,ioos:station:wmo:42045:1,2005-03-02T13:30:00Z,26.2168,-96.4998,2.0,13.93219046,26.66441074,-99999.0,'11111222,11111222,99999999' 
TABS,ioos:station:wmo:42045:1,2005-03-02T14:00:00Z,26.2168,-96.4998,2.0,19.07857963,29.00307742,-99999.0,'11111222,11111222,99999999' 
TABS,ioos:station:wmo:42045:1,2005-03-02T14:30:00Z,26.2168,-96.4998,2.0,18.63761816,28.63144076,-99999.0,'11111222,11111222,99999999' 
TABS,ioos:station:wmo:42045:1,2005-03-02T15:00:00Z,26.2168,-96.4998,2.0,24.31337195,27.20264877,-99999.0,'11111222,11111222,99999999' 
TABS,ioos:station:wmo:42045:1,2005-03-02T15:30:00Z,26.2168,-96.4998,2.0,26.55630544,28.80950017,-99999.0,'11111222,11111222,99999999' 
TABS,ioos:station:wmo:42045:1,2005-03-02T16:00:00Z,26.2168,-96.4998,2.0,27.27093325,27.95744266,-99999.0,'11111222,11111222,99999999' 
TABS,ioos:station:wmo:42045:1,2005-03-02T16:30:00Z,26.2168,-96.4998,2.0,37.69361852,27.68886058,-99999.0,'11111222,11111222,99999999' 
TABS,ioos:station:wmo:42045:1,2005-03-02T17:00:00Z,26.2168,-96.4998,2.0,43.58828022,26.97724226,-99999.0,'11111222,11111222,99999999' 
TABS,ioos:station:wmo:42045:1,2005-03-02T17:30:00Z,26.2168,-96.4998,2.0,37.53915185,23.63361166,-99999.0,'11111222,11111222,99999999' 
TABS,ioos:station:wmo:42045:1,2005-03-02T18:00:00Z,26.2168,-96.4998,2.0,38.21472083,24.11864217,-99999.0,'11111222,11111222,99999999' 
TABS,ioos:station:wmo:42045:1,2005-03-02T18:30:00Z,26.2168,-96.4998,2.0,45.6963722,24.43941489,-99999.0,'11111222,11111222,99999999' 
TABS,ioos:station:wmo:42045:1,2005-03-02T19:00:00Z,26.2168,-96.4998,2.0,53.88468898,25.36419918,-99999.0,'11111222,11111222,99999999' 
TABS,ioos:station:wmo:42045:1,2005-03-02T19:30:00Z,26.2168,-96.4998,2.0,54.86770986,19.06276475,-99999.0,'11111222,11111222,99999999' 
TABS,ioos:station:wmo:42045:1,2005-03-02T20:00:00Z,26.2168,-96.4998,2.0,59.85868493,22.58354489,-99999.0,'11111222,11111222,99999999' 
TABS,ioos:station:wmo:42045:1,2005-03-02T20:30:00Z,26.2168,-96.4998,2.0,61.35481232,19.71274968,-99999.0,'11111222,11111222,99999999' 
TABS,ioos:station:wmo:42045:1,2005-03-02T21:00:00Z,26.2168,-96.4998,2.0,74.67997504,20.8924125,-99999.0,'11111222,11111222,99999999' 
TABS,ioos:station:wmo:42045:1,2005-03-02T21:30:00Z,26.2168,-96.4998,2.0,82.17226554,21.43977612,-99999.0,'11111222,11111222,99999999' 
TABS,ioos:station:wmo:42045:1,2005-03-02T22:00:00Z,26.2168,-96.4998,2.0,89.94748338,21.82000917,-99999.0,'11111222,11111222,99999999' 
TABS,ioos:station:wmo:42045:1,2005-03-02T22:30:00Z,26.2168,-96.4998,2.0,90.31037424,18.46027085,-99999.0,'11111222,11111222,99999999' 
TABS,ioos:station:wmo:42045:1,2005-03-02T23:00:00Z,26.2168,-96.4998,2.0,104.7335824,20.5248849,-99999.0,'11111222,11111222,99999999' 
TABS,ioos:station:wmo:42045:1,2005-03-03T00:00:00Z,26.2168,-96.4998,2.0,115.9301294,23.00607963,-99999.0,'11111222,11111222,99999999' 
TABS,ioos:station:wmo:42045:1,2005-03-03T01:00:00Z,26.2168,-96.4998,2.0,134.1596889,15.43072908,-99999.0,'11111222,11111222,99999999' 
TABS,ioos:station:wmo:42045:1,2005-03-03T01:30:00Z,26.2168,-96.4998,2.0,145.2808195,16.6797512,-99999.0,'11111222,11111222,99999999' 
TABS,ioos:station:wmo:42045:1,2005-03-03T02:30:00Z,26.2168,-96.4998,2.0,164.4958443,16.75985978,-99999.0,'11111222,11111222,99999999' 
TABS,ioos:station:wmo:42045:1,2005-03-03T03:00:00Z,26.2168,-96.4998,2.0,175.6312746,16.01653208,-99999.0,'11111222,11111222,99999999' 
TABS,ioos:station:wmo:42045:1,2005-03-03T03:30:00Z,26.2168,-96.4998,2.0,181.3465686,18.29505398,-99999.0,'11111222,11111222,99999999' 
TABS,ioos:station:wmo:42045:1,2005-03-03T04:00:00Z,26.2168,-96.4998,2.0,188.8643922,17.65083567,-99999.0,'11111222,11111222,99999999' 
TABS,ioos:station:wmo:42045:1,2005-03-03T04:30:00Z,26.2168,-96.4998,2.0,177.4568934,20.05975324,-99999.0,'11111222,11111222,99999999' 
TABS,ioos:station:wmo:42045:1,2005-03-03T05:00:00Z,26.2168,-96.4998,2.0,188.2444877,20.50189503,-99999.0,'11111222,11111222,99999999' 
TABS,ioos:station:wmo:42045:1,2005-03-03T05:30:00Z,26.2168,-96.4998,2.0,189.5309723,19.14427591,-99999.0,'11111222,11111222,99999999' 
TABS,ioos:station:wmo:42045:1,2005-03-03T06:00:00Z,26.2168,-96.4998,2.0,204.0962597,21.70105297,-99999.0,'11111222,11111222,99999999' 
TABS,ioos:station:wmo:42045:1,2005-03-03T06:30:00Z,26.2168,-96.4998,2.0,214.4126747,25.9398458,-99999.0,'11111222,11111222,99999999' 
TABS,ioos:station:wmo:42045:1,2005-03-03T07:00:00Z,26.2168,-96.4998,2.0,229.6077904,23.14771911,-99999.0,'11111222,11111222,99999999' 
TABS,ioos:station:wmo:42045:1,2005-03-03T07:30:00Z,26.2168,-96.4998,2.0,236.9867951,21.82343007,-99999.0,'11111222,11111222,99999999' 
TABS,ioos:station:wmo:42045:1,2005-03-03T08:00:00Z,26.2168,-96.4998,2.0,249.746151,25.70961688,-99999.0,'11111222,11111222,99999999' 
TABS,ioos:station:wmo:42045:1,2005-03-03T08:30:00Z,26.2168,-96.4998,2.0,253.7394124,25.5,-99999.0,'11111222,11111222,99999999' 
TABS,ioos:station:wmo:42045:1,2005-03-03T09:00:00Z,26.2168,-96.4998,2.0,257.0581561,26.65710599,-99999.0,'11111222,11111222,99999999' 
TABS,ioos:station:wmo:42045:1,2005-03-03T09:30:00Z,26.2168,-96.4998,2.0,260.6870967,28.92116872,-99999.0,'11111222,11111222,99999999' 
TABS,ioos:station:wmo:42045:1,2005-03-03T10:00:00Z,26.2168,-96.4998,2.0,262.6964094,28.31974753,-99999.0,'11111222,11111222,99999999' 
TABS,ioos:station:wmo:42045:1,2005-03-03T10:30:00Z,26.2168,-96.4998,2.0,268.2403913,30.29427834,-99999.0,'11111222,11111222,99999999' 
TABS,ioos:station:wmo:42045:1,2005-03-03T11:00:00Z,26.2168,-96.4998,2.0,270.666164,29.26197533,-99999.0,'11111222,11111222,99999999' 
TABS,ioos:station:wmo:42045:1,2005-03-03T11:30:00Z,26.2168,-96.4998,2.0,273.8801733,31.33180493,-99999.0,'11111222,11111222,99999999' 
TABS,ioos:station:wmo:42045:1,2005-03-03T12:00:00Z,26.2168,-96.4998,2.0,277.1858564,28.22163886,-99999.0,'11111222,11111222,99999999' 
TABS,ioos:station:wmo:42045:1,2005-03-03T12:30:00Z,26.2168,-96.4998,2.0,288.5600576,24.69428476,-99999.0,'11111222,11111222,99999999' 
TABS,ioos:station:wmo:42045:1,2005-03-03T13:00:00Z,26.2168,-96.4998,2.0,294.0847687,26.24472709,-99999.0,'11111222,11111222,99999999' 
TABS,ioos:station:wmo:42045:1,2005-03-03T13:30:00Z,26.2168,-96.4998,2.0,292.9064546,23.40567666,-99999.0,'11111222,11111222,99999999' 
TABS,ioos:station:wmo:42045:1,2005-03-03T14:00:00Z,26.2168,-96.4998,2.0,297.352896,26.3567866,-99999.0,'11111222,11111222,99999999' 
TABS,ioos:station:wmo:42045:1,2005-03-03T14:30:00Z,26.2168,-96.4998,2.0,297.6316425,21.38945768,-99999.0,'11111222,11111222,99999999' 
TABS,ioos:station:wmo:42045:1,2005-03-03T15:30:00Z,26.2168,-96.4998,2.0,301.6404135,17.28997687,-99999.0,'11111222,11111222,99999999' 
TABS,ioos:station:wmo:42045:1,2005-03-03T16:00:00Z,26.2168,-96.4998,2.0,299.504935,13.60424934,-99999.0,'11111222,11111222,99999999' 
TABS,ioos:station:wmo:42045:1,2005-03-03T16:30:00Z,26.2168,-96.4998,2.0,304.7458656,12.94889957,-99999.0,'11111222,11111222,99999999' 
TABS,ioos:station:wmo:42045:1,2005-03-03T17:30:00Z,26.2168,-96.4998,2.0,290.2962633,4.382065723,-99999.0,'11133222,11111222,99999999' 
TABS,ioos:station:wmo:42045:1,2005-03-03T18:00:00Z,26.2168,-96.4998,2.0,208.7673716,1.163615057,-99999.0,'11133222,11111222,99999999' 
TABS,ioos:station:wmo:42045:1,2005-03-03T18:30:00Z,26.2168,-96.4998,2.0,95.9061273,1.457737974,-99999.0,'11133222,11111222,99999999' 
TABS,ioos:station:wmo:42045:1,2005-03-03T19:00:00Z,26.2168,-96.4998,2.0,114.3957365,5.90745292,-99999.0,'11133222,11111222,99999999' 
TABS,ioos:station:wmo:42045:1,2005-03-03T19:30:00Z,26.2168,-96.4998,2.0,139.2467274,5.729153515,-99999.0,'11133222,11111222,99999999' 
TABS,ioos:station:wmo:42045:1,2005-03-03T20:00:00Z,26.2168,-96.4998,2.0,147.8475696,10.74841384,-99999.0,'11111222,11111222,99999999' 
TABS,ioos:station:wmo:42045:1,2005-03-03T21:00:00Z,26.2168,-96.4998,2.0,161.3978957,19.53030978,-99999.0,'11111222,11111222,99999999' 
TABS,ioos:station:wmo:42045:1,2005-03-03T21:30:00Z,26.2168,-96.4998,2.0,158.5081658,18.20583698,-99999.0,'11111222,11111222,99999999' 
TABS,ioos:station:wmo:42045:1,2005-03-03T22:00:00Z,26.2168,-96.4998,2.0,164.6054047,21.28362986,-99999.0,'11111222,11111222,99999999' 
TABS,ioos:station:wmo:42045:1,2005-03-03T22:30:00Z,26.2168,-96.4998,2.0,160.4365072,19.59094689,-99999.0,'11111222,11111222,99999999' 
TABS,ioos:station:wmo:42045:1,2005-03-03T23:00:00Z,26.2168,-96.4998,2.0,162.119551,22.21287915,-99999.0,'11111222,11111222,99999999' 
TABS,ioos:station:wmo:42045:1,2005-03-03T23:30:00Z,26.2168,-96.4998,2.0,166.6760197,20.09077898,-99999.0,'11111222,11111222,99999999' 
TABS,ioos:station:wmo:42045:1,2005-03-04T00:00:00Z,26.2168,-96.4998,2.0,168.7573695,21.64535285,-99999.0,'11111222,11111222,99999999' 
TABS,ioos:station:wmo:42045:1,2005-03-04T00:30:00Z,26.2168,-96.4998,2.0,174.0199227,22.65326687,-99999.0,'11111222,11111222,99999999' 
TABS,ioos:station:wmo:42045:1,2005-03-04T01:00:00Z,26.2168,-96.4998,2.0,183.9794431,17.72273399,-99999.0,'11111222,11111222,99999999' 
TABS,ioos:station:wmo:42045:1,2005-03-04T01:30:00Z,26.2168,-96.4998,2.0,187.0869024,26.26063975,-99999.0,'11111222,11111222,99999999' 
TABS,ioos:station:wmo:42045:1,2005-03-04T02:00:00Z,26.2168,-96.4998,2.0,187.0894688,24.14460602,-99999.0,'11111222,11111222,99999999' 
TABS,ioos:station:wmo:42045:1,2005-03-04T02:30:00Z,26.2168,-96.4998,2.0,190.557489,26.14257256,-99999.0,'11111222,11111222,99999999' 
TABS,ioos:station:wmo:42045:1,2005-03-04T03:30:00Z,26.2168,-96.4998,2.0,191.7714812,27.2531833,-99999.0,'11111222,11111222,99999999' 
TABS,ioos:station:wmo:42045:1,2005-03-04T04:00:00Z,26.2168,-96.4998,2.0,196.4209933,24.47849669,-99999.0,'11111222,11111222,99999999' 
TABS,ioos:station:wmo:42045:1,2005-03-04T04:30:00Z,26.2168,-96.4998,2.0,199.0342874,25.08139749,-99999.0,'11111222,11111222,99999999' 
TABS,ioos:station:wmo:42045:1,2005-03-04T05:00:00Z,26.2168,-96.4998,2.0,201.0710561,24.3373499,-99999.0,'11111222,11111222,99999999' 
TABS,ioos:station:wmo:42045:1,2005-03-04T05:30:00Z,26.2168,-96.4998,2.0,202.4540894,21.83547572,-99999.0,'11111222,11111222,99999999' 
TABS,ioos:station:wmo:42045:1,2005-03-04T06:00:00Z,26.2168,-96.4998,2.0,204.3914138,23.58512243,-99999.0,'11111222,11111222,99999999' 
TABS,ioos:station:wmo:42045:1,2005-03-04T06:30:00Z,26.2168,-96.4998,2.0,210.4664203,25.10662263,-99999.0,'11111222,11111222,99999999' 
TABS,ioos:station:wmo:42045:1,2005-03-04T07:00:00Z,26.2168,-96.4998,2.0,212.9167536,21.5853492,-99999.0,'11111222,11111222,99999999' 
TABS,ioos:station:wmo:42045:1,2005-03-04T08:00:00Z,26.2168,-96.4998,2.0,218.573039,21.73160371,-99999.0,'11111222,11111222,99999999' 
TABS,ioos:station:wmo:42045:1,2005-03-04T08:30:00Z,26.2168,-96.4998,2.0,218.9428706,20.84164341,-99999.0,'11111222,11111222,99999999' 
TABS,ioos:station:wmo:42045:1,2005-03-04T09:00:00Z,26.2168,-96.4998,2.0,222.4414665,17.42633639,-99999.0,'11111222,11111222,99999999' 
TABS,ioos:station:wmo:42045:1,2005-03-04T09:30:00Z,26.2168,-96.4998,2.0,233.9402798,17.10771171,-99999.0,'11111222,11111222,99999999' 
TABS,ioos:station:wmo:42045:1,2005-03-04T10:00:00Z,26.2168,-96.4998,2.0,235.3596441,18.40193468,-99999.0,'11111222,11111222,99999999' 
TABS,ioos:station:wmo:42045:1,2005-03-04T10:30:00Z,26.2168,-96.4998,2.0,241.5499065,18.49334205,-99999.0,'11111222,11111222,99999999' 
TABS,ioos:station:wmo:42045:1,2005-03-04T11:00:00Z,26.2168,-96.4998,2.0,250.6121528,16.93001181,-99999.0,'11111222,11111222,99999999' 
TABS,ioos:station:wmo:42045:1,2005-03-04T11:30:00Z,26.2168,-96.4998,2.0,261.9622782,16.59298948,-99999.0,'11111222,11111222,99999999' 
TABS,ioos:station:wmo:42045:1,2005-03-04T12:30:00Z,26.2168,-96.4998,2.0,273.5795014,12.97530732,-99999.0,'11111222,11111222,99999999' 
TABS,ioos:station:wmo:42045:1,2005-03-04T13:30:00Z,26.2168,-96.4998,2.0,294.2861893,9.895721298,-99999.0,'11133222,11111222,99999999' 
TABS,ioos:station:wmo:42045:1,2005-03-04T14:00:00Z,26.2168,-96.4998,2.0,294.3414539,9.219544457,-99999.0,'11133222,11111222,99999999' 
TABS,ioos:station:wmo:42045:1,2005-03-04T14:30:00Z,26.2168,-96.4998,2.0,317.9347092,8.149484646,-99999.0,'11133222,11111222,99999999' 
TABS,ioos:station:wmo:42045:1,2005-03-04T15:00:00Z,26.2168,-96.4998,2.0,318.3933188,7.168486591,-99999.0,'11133222,11111222,99999999' 
TABS,ioos:station:wmo:42045:1,2005-03-04T15:30:00Z,26.2168,-96.4998,2.0,324.9349319,8.320126201,-99999.0,'11133222,11111222,99999999' 
TABS,ioos:station:wmo:42045:1,2005-03-04T16:30:00Z,26.2168,-96.4998,2.0,7.742028524,11.06081823,-99999.0,'11111222,11111222,99999999' 
TABS,ioos:station:wmo:42045:1,2005-03-04T17:00:00Z,26.2168,-96.4998,2.0,11.31011649,9.33120571,-99999.0,'11133222,11111222,99999999' 
TABS,ioos:station:wmo:42045:1,2005-03-04T17:30:00Z,26.2168,-96.4998,2.0,20.04908001,11.90121002,-99999.0,'11111222,11111222,99999999' 
TABS,ioos:station:wmo:42045:1,2005-03-04T18:00:00Z,26.2168,-96.4998,2.0,39.80568847,11.55916952,-99999.0,'11111222,11111222,99999999' 
TABS,ioos:station:wmo:42045:1,2005-03-04T18:30:00Z,26.2168,-96.4998,2.0,49.3988003,12.53858046,-99999.0,'11111222,11111222,99999999' 
TABS,ioos:station:wmo:42045:1,2005-03-04T19:00:00Z,26.2168,-96.4998,2.0,57.0284143,11.50261275,-99999.0,'11111222,11111222,99999999' 
TABS,ioos:station:wmo:42045:1,2005-03-04T19:30:00Z,26.2168,-96.4998,2.0,66.52396036,12.19982377,-99999.0,'11111222,11111222,99999999' 
TABS,ioos:station:wmo:42045:1,2005-03-04T20:00:00Z,26.2168,-96.4998,2.0,64.9106848,13.37164911,-99999.0,'11111222,11111222,99999999' 
TABS,ioos:station:wmo:42045:1,2005-03-04T20:30:00Z,26.2168,-96.4998,2.0,71.41742542,12.26967807,-99999.0,'11111222,11111222,99999999' 
TABS,ioos:station:wmo:42045:1,2005-03-04T21:00:00Z,26.2168,-96.4998,2.0,68.91925943,15.20779405,-99999.0,'11111222,11111222,99999999' 
TABS,ioos:station:wmo:42045:1,2005-03-04T21:30:00Z,26.2168,-96.4998,2.0,66.58984643,17.06470041,-99999.0,'11111222,11111222,99999999' 
TABS,ioos:station:wmo:42045:1,2005-03-04T22:00:00Z,26.2168,-96.4998,2.0,68.63936854,14.00184274,-99999.0,'11111222,11111222,99999999' 
TABS,ioos:station:wmo:42045:1,2005-03-04T22:30:00Z,26.2168,-96.4998,2.0,74.80841909,15.03541486,-99999.0,'11111222,11111222,99999999' 
TABS,ioos:station:wmo:42045:1,2005-03-04T23:00:00Z,26.2168,-96.4998,2.0,74.18017691,13.79240733,-99999.0,'11111222,11111222,99999999' 
TABS,ioos:station:wmo:42045:1,2005-03-04T23:30:00Z,26.2168,-96.4998,2.0,74.12377339,15.93795784,-99999.0,'11111222,11111222,99999999' 
TABS,ioos:station:wmo:42045:1,2005-03-05T00:00:00Z,26.2168,-96.4998,2.0,82.42163177,16.30239553,-99999.0,'11111222,11111222,99999999' 